User: anonymous   Login
Location: Nairn
(57.5833°N, 3.8667°W)
Time: 02:31:13
(UTC+00:00)
Language:

Cosmos 2151 Rocket - Orbit

View from above orbital plane
View from above orbital plane
View from above satellite
View from above satellite

Ground track
Ground track

The orbit data is extracted from the following two-line orbital elements,

1 21423U 91042B   20302.80627442  .00000078  00000-0  72874-5 0  9996
2 21423  82.4937 252.2559 0017577 177.3929 182.7379 14.79802422584421
Epoch (UTC): 28 October 2020 19:21:02
Eccentricity: 0.0017577
inclination: 82.4937°
perigee height: 617 km
apogee height: 642 km
right ascension of ascending node: 252.2559°
argument of perigee: 177.3929°
revolutions per day: 14.79802422
mean anomaly at epoch: 182.7379°
orbit number at epoch: 58442

The dashed part of the orbit path shows where the satellite is in the earth's shadow,  

DLR